sat.trackr.live / text

‹ back to catalog

RASSVET-3 15

NORAD 68374 · 2026-061Q

PAYLOAD ACTIVE UNKNOWN

§ Identity

Operator
Country
CIS
Launch date
2026-03-23
Launch site
PLMSC
Launch vehicle
Mass (kg)
RCS (m²)

External: N2YO · Heavens-Above · Gunter

§ Orbital elements

Epoch: 2026-05-25T04:42:44.421408Z

Period
90.89 min
Inclination
82.2977°
Eccentricity
0.0006298
Mean motion
15.84405018 rev/d
Perigee alt
313.8 km
Apogee alt
322.2 km
Semi-major
6,696.1 km
B*
2.9320e-4
RAAN
38.1505°
Arg perigee
173.4596°
Mean anomaly
186.6756°
Rev number
991

§ Raw data

RASSVET-3 151 68374U 26061Q   26145.19634747  .00066992  00000+0  29320-3 0  99922 68374  82.2977  38.1505 0006298 173.4596 186.6756 15.84405018  9911

JSON: /api/v1/satellites/68374 · /tle

For live sub-satellite position, see the globe view (requires WebGL).

§ Visibility from observer

Set your observer location to see the next 7 days of passes ≥ 10°. The values pass through the URL so the page stays shareable.

No JS? Fill the form by hand. The geolocation button needs JavaScript.